OPS 4682 DEB, 18270

Orbit data source: Space-Track

OPS 4682 DEB, 18270 is space debris in LEO originally from a launch on Sat, 03 Apr 1965 UTC launched from the Air Force Western Test Range (AFWTR). Debris objects in space refer to the collection of defunct objects orbiting the Earth. Examples of debris include non-operational satellites, rocket bodies, and fragments generated from explosions, collisions, or faulty payload assembly.

Loading next visibility...
Identifier
18270, 1965-027Z
Orbit
LEO
Country
Flag of USUS
Related business
Manufacturer
Unknown
Mission
Spacecraft
Bus & Motor
Unknown
Mass
Unknown
Launch date (UTC)
1965-04-03 (61 years ago)
Launch vehicle
Unknown
Launch site
Air Force Western Test Range (AFWTR)
Object type
Payload
Rocket body
Debris
Shape & HBR
Unknown shape, 0.1 m
Radar Cross Section
Medium (>0.1 m² and <1 m²)

Expand to show TLE details & history
Last TLE update: 4 hours ago

TLE from 4 hours ago
0 OPS 4682 DEB
1 18270U 65027Z   26177.77049961 -.00000265  00000-0 -94119-3 0  9996
2 18270  90.2319 359.8411 0031287  76.0524 303.9797 12.97184469917837
Epoch: 2026-06-26T18:29Z
TLE epoch observation values (Epoch: 2026-06-26T18:29:31.166Z)
Latitude
19.73361°
Longitude
167.48424°
Altitude
1,262.272 km
Speed
7.232 km/s
True Right ascension
23h 59m 01s
True Declination
19° 37' 54"
Sunlit
Object was in daylight at epoch
Visualization orbit readout
Latitude
Unknown
Longitude
Unknown
Altitude
Unknown
Speed
Unknown
Apparent Right ascension
Unknown
Apparent Declination
Unknown
Sunlit
N/A
Visualization observer readout
Local Sidereal Time
10:03:53
Azimuth
Unknown
Elevation
Unknown
Doppler factor
Unknown
Orbital elements
Apogee altitude
1,294.199 km
Perigee altitude
1,246.34 km
Semi-major axis
7,648.406 km
Eccentricity
0.00313
Inclination
90.2319°
RAAN
359.8411°
Arg. of periapsis
76.0524°
True anomaly
303.68175°
Mean anomaly
303.9797°
Eccentric anomaly
303.83079°
Mean motion
3.24479 °/min
Orbital period
110.95 mins
BSTAR
-0.00094119
Loading maneuver chart data...
Computing Atmospheric mass density...
Loading historical data...
Loading historical data...
Loading historical data...
Loading historical data...
Loading historical data...
Loading historical data...
Loading historical data...

Documentation

Showing up to 5 results
|